RH
51 71 94 74 49 42 46 40 37 32 23 21 18 17 18 19 18 17 18 18 19 18 16 18 21 22 22 20 20 19 19 21 23 24 21 20 18 14 15 15 16 16 21
63 64 94 78 60 58 59 65 66 52 33 26 22 22 20 21 21 20 20 20 19 19 20 20 20 18 18 20 21 20 23 24 23 25 23 20 17 16 14 20 21 25 28
66 57 100 96 82 72 79 76 81 67 52 44 36 29 23 20 19 18 19 18 18 21 23 24 23 24 28 26 20 18 19 21 21 22 20 19 17 19 41 50 47 43 46
88 78 100 98 80 85 96 99 89 72 59 44 32 25 20 17 15 14 15 17 20 22 23 25 23 23 22 23 26 19 17 20 23 23 22 18 21 43 86 78 79 73 82
100 94 91 100 100 100 100 100 96 96 71 62 57 47 20 17 19 17 18 24 26 30 27 24 22 22 25 25 26 21 21 24 26 22 18 16 31 89 100 81 76 66 70
100 100 94 100 100 100 100 100 97 90 97 97 63 28 18 17 18 18 18 16 22 26 26 22 22 20 23 18 18 20 25 26 25 18 17 15 46 100 100 79 81 70 90
100 100 100 100 100 100 100 91 89 77 73 88 52 27 20 19 19 17 17 17 17 21 24 22 16 17 16 15 16 22 29 30 20 15 16 20 68 100 100 70 86 100 100
100 100 100 100 100 100 96 90 100 90 78 78 51 32 24 22 21 19 19 20 19 19 20 15 13 13 16 24 31 35 36 25 14 11 13 35 74 100 97 92 100 100 100
93 97 85 86 92 98 99 96 72 64 75 83 54 40 24 20 21 22 23 23 23 22 16 13 15 19 36 43 54 43 26 14 11 11 16 55 99 100 100 96 100 100 100
100 100 91 75 95 100 100 85 88 100 91 48 34 29 25 25 29 25 28 30 24 16 14 18 22 43 54 55 51 29 17 12 10 10 31 90 100 100 100 100 99 100 100
73 92 95 95 100 91 59 69 96 92 63 44 32 32 33 36 34 33 29 21 18 16 20 28 50 64 59 52 30 19 14 12 10 12 38 97 100 100 100 100 100 100 100
73 67 65 51 97 100 100 91 76 62 50 40 34 37 48 43 39 34 20 17 16 18 35 58 62 60 41 28 22 17 12 13 12 13 28 84 100 100 100 98 100 100 100
99 99 83 52 42 57 73 66 59 52 46 44 37 47 50 40 39 23 17 16 18 26 56 64 51 33 26 25 19 14 11 14 16 12 20 56 100 98 88 74 98 100 100
100 100 96 89 72 60 61 66 64 55 50 49 46 47 44 40 26 19 18 22 25 48 62 49 35 27 25 23 17 13 12 14 17 15 12 44 91 84 98 100 100 100 100
72 95 100 92 85 85 78 63 54 53 51 49 58 45 47 33 19 21 29 44 67 60 46 34 30 24 27 23 19 15 11 14 16 20 14 13 45 77 95 97 99 100 100
81 86 80 97 100 100 87 61 61 53 55 65 59 55 29 18 21 28 44 77 69 44 27 23 23 26 31 26 26 22 16 13 14 18 21 21 18 32 71 88 90 100 100
92 100 80 98 97 84 74 56 54 53 66 64 55 32 17 20 27 47 81 77 51 28 25 25 25 28 30 30 32 32 28 20 18 17 17 20 26 29 44 80 75 87 73
100 100 85 85 86 87 60 54 62 68 64 54 29 16 23 38 54 76 80 74 52 47 34 29 28 27 28 27 28 31 35 38 33 24 22 22 19 22 36 62 74 81 84
100 100 100 92 82 83 76 65 72 69 53 22 18 24 37 72 83 94 88 80 77 65 53 43 39 38 38 36 34 31 29 33 38 44 44 39 34 30 28 30 36 42 47
100 100 99 87 83 93 90 78 72 39 16 18 21 37 74 89 99 100 90 80 72 68 63 56 50 45 48 49 48 48 47 45 40 36 37 43 50 57 59 59 59 57 56
74 92 87 78 88 100 84 60 26 16 19 20 27 74 89 89 82 87 83 65 59 55 47 42 39 33 29 33 38 41 40 42 47 51 50 49 45 44 43 44 45 48 53
56 71 70 76 79 54 33 20 18 19 22 22 49 82 65 44 45 42 41 35 24 14 11 12 13 12 12 13 13 14 14 14 14 16 16 16 17 20 23 29 41 48 49
52 66 78 57 35 24 21 20 23 28 26 42 40 32 22 18 16 16 16 19 21 19 18 18 18 19 19 16 16 15 14 15 16 16 15 15 14 15 15 16 16 17 18
73 76 47 30 26 24 25 33 42 36 31 25 21 20 18 19 18 19 21 20 21 20 18 18 17 17 17 16 15 14 14 14 14 19 25 23 21 22 25 31 33 33 31
75 51 34 29 29 37 38 36 32 27 23 23 23 22 21 20 20 23 23 22 20 19 18 17 17 15 14 14 14 14 13 12 10 9 10 16 21 25 29 30 32 36 39
60 38 34 31 32 32 32 30 26 24 24 24 24 24 28 27 24 24 23 21 20 18 18 16 14 13 14 12 12 12 12 11 11 12 13 13 14 20 21 32 43 45 45
Wind_Speed
39 38 36 36 35 32 33 34 35 34 32 32 34 36 38 39 40 41 43 45 48 47 48 49 51 53 53 55 57 58 60 59 60 62 65 66 67 66 67 67 65 63 61
44 41 41 38 37 34 34 35 36 37 36 36 37 38 41 42 45 48 49 49 50 51 52 54 55 55 54 56 59 60 61 65 65 66 68 66 66 67 66 63 57 54 50
49 44 42 41 37 36 37 36 39 38 35 38 41 42 44 46 46 49 52 54 57 56 57 58 59 60 59 59 61 65 67 66 66 66 65 65 66 62 57 55 48 44 44
52 50 45 46 45 42 44 42 37 34 40 41 43 45 47 51 54 54 56 59 61 61 62 62 64 65 67 68 64 63 65 65 64 65 64 64 60 53 51 50 49 44 42
53 51 48 50 46 44 44 43 39 41 43 44 46 48 47 46 50 52 54 56 60 60 63 64 65 66 66 67 64 63 64 62 62 65 64 61 53 50 52 51 48 48 46
54 55 52 54 52 44 41 45 49 48 45 46 45 44 47 49 53 56 58 58 59 60 64 67 67 70 69 65 65 64 61 60 60 63 62 57 51 52 52 49 51 52 50
59 55 56 55 51 49 48 48 48 47 46 45 47 50 51 54 58 62 63 63 64 64 69 69 65 64 65 63 61 58 59 59 60 62 60 54 50 50 53 52 51 52 49
62 59 58 56 56 55 53 52 48 46 48 49 51 53 56 62 66 68 68 69 69 68 67 68 67 62 59 56 55 55 56 58 59 60 56 53 52 51 53 54 53 55 49
65 61 60 61 60 57 55 50 47 48 53 53 55 58 62 64 64 66 70 68 67 68 66 62 58 53 51 52 52 53 55 56 57 54 53 51 51 55 55 53 54 58 56
66 68 65 62 59 62 54 48 49 53 55 58 62 64 65 63 65 66 66 69 65 63 60 57 51 48 49 51 52 52 54 55 55 53 52 52 54 55 54 54 55 62 62
65 61 53 48 61 53 55 54 55 59 61 65 69 69 66 67 68 67 69 67 62 59 56 49 45 47 50 50 53 53 53 52 53 52 53 54 55 57 57 55 59 65 61
68 65 64 60 54 52 54 58 60 63 66 69 72 71 70 73 70 71 67 63 57 55 47 43 45 48 50 52 53 53 53 51 52 53 55 57 55 56 61 53 58 61 63
69 70 65 62 67 65 62 65 65 69 68 70 75 74 74 72 70 67 64 60 54 48 44 45 48 49 49 49 50 51 51 51 52 55 58 60 59 58 60 60 62 65 67
71 71 69 67 68 69 68 68 70 70 70 72 72 72 70 68 66 64 61 56 48 44 44 47 48 49 48 48 48 49 51 52 53 54 57 61 62 61 61 61 62 67 69
73 71 68 68 67 67 66 66 67 68 68 68 67 67 66 65 63 59 56 45 42 43 45 49 49 47 46 47 45 48 50 52 53 55 58 62 67 68 68 67 64 67 72
70 69 70 66 67 68 68 67 71 70 67 67 65 67 63 59 58 56 48 43 44 44 45 46 44 44 44 44 45 46 49 50 52 57 59 64 66 71 72 74 71 73 75
72 68 68 66 71 70 68 70 72 68 67 66 66 62 55 55 56 51 45 43 45 42 43 43 43 42 42 43 45 46 46 48 52 54 59 63 67 71 76 76 79 81 82
73 70 70 68 71 72 73 72 70 68 66 62 53 52 54 52 50 44 44 43 43 42 42 42 42 41 42 43 44 46 47 47 49 52 55 59 64 71 77 83 84 85 88
67 71 69 69 72 72 69 67 64 57 54 49 49 51 49 45 44 42 44 44 45 45 45 44 44 44 46 47 48 48 48 49 51 53 55 57 60 63 68 75 80 83 84
48 56 61 66 69 65 63 62 57 49 45 46 46 44 38 41 43 43 43 43 46 49 49 49 49 49 50 52 54 55 55 55 57 58 59 61 63 65 68 71 76 79 82
42 43 46 50 50 49 52 51 45 39 42 43 45 40 39 41 41 42 44 47 48 49 50 51 51 51 51 53 56 58 59 60 63 64 66 68 69 72 74 76 79 82 85
42 41 43 44 43 44 43 39 37 39 40 44 41 40 41 39 39 39 43 46 45 45 46 48 50 52 52 53 56 60 63 65 65 66 70 73 74 78 82 85 87 90 92
41 39 40 39 39 36 34 35 36 38 40 36 36 36 36 36 35 36 39 41 42 44 46 48 51 55 56 56 57 59 62 66 68 74 76 78 79 83 86 90 93 96 98
40 39 38 36 33 32 34 33 36 37 36 36 37 38 39 37 39 41 43 45 46 48 50 52 55 58 61 64 64 65 66 66 68 67 78 84 86 88 91 94 97 102 105
41 39 38 35 33 29 29 31 33 35 38 40 40 40 42 43 44 45 47 48 51 54 57 59 61 63 65 69 70 72 74 75 74 71 70 79 86 90 93 97 102 103 105
42 40 39 39 34 33 34 35 36 40 41 42 42 44 44 44 46 50 52 54 57 60 63 67 69 71 74 74 75 76 77 80 83 83 80 80 82 88 95 99 102 105 106
Wind_Direction
261 264 260 262 263 272 274 274 272 272 269 268 270 272 274 277 279 281 279 279 281 282 281 279 277 277 277 276 275 274 275 276 279 282 282 280 279 277 274 272 271 272 272
260 262 262 257 264 271 270 268 273 272 269 271 274 276 280 282 284 284 283 283 282 283 282 284 282 280 279 278 276 274 275 279 279 279 280 278 276 273 273 272 272 272 273
260 260 259 255 262 266 271 268 274 276 278 277 280 281 282 282 283 284 284 284 284 281 280 279 276 276 279 280 279 278 278 279 281 280 278 276 272 271 271 272 272 274 273
256 258 258 257 262 269 273 267 264 273 285 285 284 285 284 286 289 287 284 284 281 279 279 278 279 278 277 278 279 280 278 278 277 277 276 274 271 267 266 268 270 278 274
252 256 258 256 263 273 272 259 263 278 284 285 288 290 287 285 288 287 288 287 280 277 278 280 282 281 283 280 277 278 276 274 276 276 274 273 265 258 260 265 268 274 274
250 253 254 256 262 269 268 264 274 279 282 284 286 286 286 287 291 292 292 291 285 285 286 284 286 282 281 281 276 276 272 272 272 273 271 268 256 258 260 266 268 272 275
248 251 252 256 262 262 267 265 271 273 280 284 286 285 288 291 292 294 291 292 292 290 289 289 288 283 281 278 275 271 269 270 271 270 268 259 251 258 261 263 269 275 273
250 250 253 256 258 262 268 269 269 271 277 284 286 286 287 291 293 293 292 292 292 293 295 291 287 282 276 273 271 269 270 272 272 270 264 254 252 255 257 262 269 274 270
251 253 256 257 258 261 262 273 272 276 278 282 289 291 292 293 294 296 295 296 295 294 294 291 285 280 275 273 272 273 274 274 271 266 257 251 253 258 255 260 270 271 269
256 256 254 259 260 263 270 275 278 274 278 289 294 294 294 294 295 297 298 297 295 293 291 287 281 276 276 276 276 276 276 275 269 262 249 249 254 255 257 262 269 272 273
252 254 261 273 268 258 262 270 274 278 284 289 293 294 296 296 298 299 298 298 294 290 290 282 278 279 279 279 277 276 275 273 267 258 248 248 253 256 258 263 270 273 270
253 255 261 257 263 262 267 272 275 279 283 287 292 294 296 298 298 297 297 294 291 290 282 281 280 279 280 279 279 277 275 270 265 258 250 248 252 256 257 259 271 272 272
251 254 256 255 258 268 272 275 278 280 284 287 290 294 296 296 296 293 295 293 289 282 279 282 283 282 281 280 280 276 274 269 265 259 256 250 252 255 255 255 266 273 275
248 253 256 257 259 264 270 275 279 281 286 287 288 293 294 294 291 293 295 292 284 279 282 285 286 284 284 282 281 278 273 269 266 263 259 254 252 252 255 261 268 270 270
248 252 256 259 262 265 269 273 278 281 284 286 289 293 292 289 289 293 294 287 286 285 286 287 286 286 287 285 285 282 277 272 267 263 261 257 256 255 255 258 266 269 270
253 253 256 261 263 266 269 275 278 283 282 284 288 290 289 287 292 293 289 287 287 290 290 289 290 289 290 289 287 285 282 278 272 266 263 262 259 257 258 260 261 266 269
249 252 256 258 262 266 270 273 277 280 282 285 286 286 285 287 292 292 288 291 295 294 291 293 291 291 292 290 289 288 287 283 278 275 269 266 262 261 260 260 261 263 267
248 251 255 259 263 266 269 273 277 281 281 283 280 281 284 288 289 290 290 294 297 300 297 296 294 293 292 289 288 287 286 286 284 280 277 275 271 268 264 262 263 265 268
246 250 254 259 263 265 268 270 275 278 278 275 277 286 287 284 288 291 293 295 297 296 294 294 295 294 293 292 289 288 285 284 281 279 278 278 276 274 273 271 270 270 270
246 251 255 260 264 266 267 270 273 271 270 273 283 287 284 287 287 287 287 290 291 290 290 291 292 292 292 291 290 289 288 286 284 283 280 278 277 276 275 274 273 273 272
245 249 255 259 262 259 265 266 265 265 269 276 283 282 285 287 288 287 287 289 289 290 290 290 291 290 289 288 288 288 287 286 285 284 283 282 280 279 277 276 275 275 275
244 248 252 255 257 260 259 258 263 267 273 278 280 282 283 287 285 285 286 288 290 292 293 292 292 291 290 290 289 289 288 286 284 282 281 280 279 278 277 276 274 274 274
243 246 249 251 254 257 260 263 267 271 274 274 276 278 278 279 283 287 289 291 294 294 294 295 296 295 294 292 291 289 288 287 288 289 287 284 283 282 280 278 277 276 275
240 242 246 249 252 257 261 265 263 266 268 271 273 274 277 282 285 290 294 296 298 300 301 302 302 301 299 296 293 289 286 284 283 281 286 286 285 283 282 281 281 280 279
236 241 245 246 251 254 254 258 263 265 266 270 273 275 279 283 288 292 296 298 299 301 302 301 302 302 299 297 294 293 291 288 285 281 274 276 281 282 282 281 280 280 278
235 239 243 246 249 251 254 256 261 265 268 273 279 283 287 291 292 293 296 297 299 301 302 302 302 301 301 297 295 293 292 291 290 290 287 284 281 279 278 281 282 281 280